Weather History for Hillsdale, MI

Change the Weather History Date:

Saturday, July 7, 2012

  Actual Average Record
Temperature  
Mean Temperature 89 °F -  
Max Temperature 100 °F 82 °F 100 °F (2012)
Min Temperature 77 °F 57 °F 40 °F (1984)
Cooling Degree Days 24    
Growing Degree Days 39 (Base 50)    
Moisture  
Dew Point 70 °F    
Average Humidity 56    
Maximum Humidity 87    
Minimum Humidity 30    
Precipitation  
Precipitation 0.00 in - - ()
Sea Level Pressure  
Sea Level Pressure 29.96 in    
Wind  
Wind Speed 6 mph (WNW)    
Max Wind Speed 18 mph    
Max Gust Speed 23 mph    
Visibility 10 miles    
Events      
Averages and records for this station are not official NWS values.
T = Trace of Precipitation, MM = Missing Value Source: NWS Daily Summary

Daily Weather History Graph

Daily Weather History Graph

Search for Another Location

Airport:

Trip Planner

Search our weather history database for the weather conditions in past years. The results will help you decide how hot, cold, wet, or windy it might be!

Date:

Astronomy

Jul. 07, 2012 Rise Set
Actual Time 6:10 AM EDT 9:15 PM EDT
Civil Twilight 5:36 AM EDT 9:49 PM EDT
Nautical Twilight 4:53 AM EDT 10:32 PM EDT
Astronomical Twilight 4:02 AM EDT 11:23 PM EDT
Moon 11:29 PM EDT (7/7) 10:39 AM EDT (7/7)
Length of Visible Light 16h 12m
Length of Day
15h 05m
Waning Gibbous, 82% of the Moon is Illuminated
Jul 7
Waning Gibbous
Jul 10
Last Quarter
Jul 19
New
Jul 26
First Quarter
Aug 1
Full

Hourly Weather History & Observations

Time (EDT) Temp. Heat Index Dew Point Humidity Pressure Visibility Wind Dir Wind Speed Gust Speed Precip Events Conditions
12:14 AM 83.1 °F 91.9 °F 76.6 °F 81% 29.97 in 10.0 mi Calm Calm - N/A   Clear
12:35 AM 83.1 °F 91.6 °F 76.5 °F 80% 29.97 in 10.0 mi Calm Calm - N/A   Clear
12:54 AM 82.8 °F 90.4 °F 75.6 °F 79% 29.97 in 10.0 mi Calm Calm - N/A   Clear
1:14 AM 81.7 °F 89.5 °F 77.2 °F 86% 29.97 in 10.0 mi Calm Calm - N/A   Clear
1:35 AM 81.0 °F 87.7 °F 76.6 °F 87% 29.97 in 10.0 mi Calm Calm - N/A   Clear
1:54 AM 82.8 °F 89.8 °F 74.8 °F 77% 29.97 in 10.0 mi West 4.6 mph - N/A   Clear
2:15 AM 82.8 °F 89.5 °F 74.5 °F 76% 29.97 in 10.0 mi West 3.5 mph - N/A   Clear
2:35 AM 83.5 °F 90.0 °F 73.4 °F 72% 29.96 in 10.0 mi WSW 5.8 mph - N/A   Clear
2:54 AM 83.7 °F 89.7 °F 73.0 °F 70% 29.95 in 10.0 mi West 3.5 mph - N/A   Clear
3:15 AM 82.8 °F 88.4 °F 72.9 °F 72% 29.95 in 10.0 mi Calm Calm - N/A   Clear
3:35 AM 81.3 °F 86.5 °F 73.6 °F 77% 29.96 in 10.0 mi West 3.5 mph - N/A   Clear
3:54 AM 81.7 °F 86.9 °F 73.0 °F 75% 29.96 in 10.0 mi West 3.5 mph - N/A   Clear
4:15 AM 81.1 °F 86.0 °F 73.0 °F 76% 29.96 in 10.0 mi West 3.5 mph - N/A   Clear
4:34 AM 81.0 °F 85.8 °F 73.2 °F 77% 29.96 in 10.0 mi Calm Calm - N/A   Clear
4:55 AM 80.2 °F 84.7 °F 73.4 °F 80% 29.96 in 10.0 mi Calm Calm - N/A   Clear
5:14 AM 81.1 °F 86.0 °F 72.9 °F 76% 29.96 in 10.0 mi West 4.6 mph - N/A   Clear
5:35 AM 80.8 °F 85.4 °F 73.0 °F 77% 29.97 in 10.0 mi West 3.5 mph - N/A   Clear
5:54 AM 80.6 °F 85.0 °F 72.7 °F 77% 29.96 in 10.0 mi Calm Calm - N/A   Clear
6:14 AM 81.0 °F 86.0 °F 73.4 °F 78% 29.96 in 10.0 mi West 3.5 mph - N/A   Clear
6:34 AM 80.8 °F 85.9 °F 74.1 °F 80% 29.97 in 10.0 mi West 5.8 mph - N/A   Clear
6:55 AM 81.9 °F 88.0 °F 74.5 °F 78% 29.97 in 10.0 mi West 6.9 mph - N/A   Clear
7:14 AM 82.4 °F 89.0 °F 74.5 °F 77% 29.97 in 10.0 mi WNW 5.8 mph - N/A   Clear
7:55 AM 84.6 °F 91.7 °F 73.8 °F 70% 29.97 in 10.0 mi West 5.8 mph - N/A   Clear
8:14 AM 85.6 °F 92.6 °F 73.2 °F 66% 29.97 in 10.0 mi West 6.9 mph - N/A   Clear
8:35 AM 86.9 °F 93.7 °F 72.5 °F 62% 29.97 in 10.0 mi West 8.1 mph - N/A   Clear
8:54 AM 88.2 °F 95.0 °F 72.3 °F 59% 29.96 in 10.0 mi West 6.9 mph - N/A   Clear
9:15 AM 88.3 °F 95.4 °F 72.1 °F 59% 29.96 in 10.0 mi West 5.8 mph - N/A   Clear
9:35 AM 90.0 °F 96.4 °F 71.4 °F 54% 29.96 in 10.0 mi West 9.2 mph - N/A   Clear
9:54 AM 91.2 °F 97.5 °F 70.5 °F 51% 29.98 in 10.0 mi WNW 8.1 mph - N/A   Clear
10:15 AM 92.1 °F 97.2 °F 69.3 °F 47% 29.98 in 10.0 mi WNW 12.7 mph - N/A   Clear
10:34 AM 93.4 °F 98.1 °F 68.4 °F 44% 29.98 in 10.0 mi WNW 11.5 mph 17.3 mph N/A   Clear
10:54 AM 93.9 °F 98.0 °F 67.8 °F 42% 29.98 in 10.0 mi West 12.7 mph 19.6 mph N/A   Clear
11:15 AM 95.4 °F 99.1 °F 67.1 °F 39% 29.98 in 10.0 mi WNW 13.8 mph 20.7 mph N/A   Clear
11:34 AM 95.7 °F 99.2 °F 66.7 °F 38% 29.98 in 10.0 mi NW 11.5 mph - N/A   Clear
11:54 AM 96.4 °F 100.0 °F 66.4 °F 37% 29.98 in 10.0 mi WNW 15.0 mph 20.7 mph N/A   Clear
12:15 PM 97.5 °F 100.8 °F 66.0 °F 35% 29.98 in 10.0 mi WNW 10.4 mph 18.4 mph N/A   Clear
12:34 PM 97.7 °F 101.2 °F 66.0 °F 35% 29.97 in 10.0 mi WNW 9.2 mph 20.7 mph N/A   Scattered Clouds
12:55 PM 98.4 °F 101.3 °F 64.9 °F 33% 29.97 in 10.0 mi NW 13.8 mph 20.7 mph N/A   Clear
1:14 PM 98.2 °F 101.0 °F 64.9 °F 33% 29.97 in 10.0 mi NW 9.2 mph 16.1 mph N/A   Scattered Clouds
1:34 PM 99.5 °F 102.0 °F 64.0 °F 31% 29.97 in 10.0 mi WNW 12.7 mph 20.7 mph N/A   Scattered Clouds
1:55 PM 98.8 °F 101.9 °F 65.1 °F 33% 29.96 in 10.0 mi NW 13.8 mph 17.3 mph N/A   Scattered Clouds
2:14 PM 100.2 °F 103.9 °F 65.7 °F 32% 29.96 in 10.0 mi NW 10.4 mph 17.3 mph N/A   Scattered Clouds
2:35 PM 99.0 °F 101.7 °F 64.8 °F 32% 29.95 in 10.0 mi WNW 11.5 mph 18.4 mph N/A   Clear
2:55 PM 100.4 °F 103.0 °F 64.0 °F 30% 29.94 in 10.0 mi NW 13.8 mph 21.9 mph N/A   Scattered Clouds
3:14 PM 100.4 °F 103.6 °F 64.4 °F 31% 29.94 in 10.0 mi West 6.9 mph 19.6 mph N/A   Scattered Clouds
3:35 PM 99.7 °F 102.3 °F 64.2 °F 31% 29.94 in 10.0 mi WNW 13.8 mph 19.6 mph N/A   Scattered Clouds
3:54 PM 100.9 °F 104.6 °F 64.8 °F 31% 29.93 in 10.0 mi West 11.5 mph - N/A   Scattered Clouds
4:14 PM 100.2 °F 103.9 °F 65.1 °F 32% 29.93 in 10.0 mi WNW 15.0 mph 19.6 mph N/A   Scattered Clouds
4:34 PM 100.4 °F 103.0 °F 64.2 °F 30% 29.93 in 10.0 mi NW 12.7 mph 21.9 mph N/A   Scattered Clouds
4:55 PM 100.2 °F 103.3 °F 64.9 °F 31% 29.93 in 10.0 mi WNW 13.8 mph 20.7 mph N/A   Scattered Clouds
5:14 PM 100.2 °F 103.3 °F 64.8 °F 31% 29.93 in 10.0 mi West 10.4 mph 19.6 mph N/A   Scattered Clouds
5:35 PM 99.9 °F 103.3 °F 65.1 °F 32% 29.93 in 10.0 mi WNW 11.5 mph 17.3 mph N/A   Scattered Clouds
5:54 PM 97.7 °F 101.7 °F 66.7 °F 36% 29.93 in 10.0 mi WNW 12.7 mph 20.7 mph N/A   Scattered Clouds
6:15 PM 98.2 °F 102.8 °F 66.7 °F 36% 29.93 in 10.0 mi WNW 12.7 mph 19.6 mph N/A   Scattered Clouds
6:35 PM 97.3 °F 101.7 °F 66.9 °F 37% 29.93 in 10.0 mi WNW 18.4 mph 23.0 mph N/A   Clear
6:54 PM 96.8 °F 100.7 °F 66.9 °F 37% 29.93 in 10.0 mi WNW 12.7 mph - N/A   Scattered Clouds
7:15 PM 96.3 °F 100.8 °F 67.6 °F 39% 29.93 in 10.0 mi WNW 11.5 mph - N/A   Scattered Clouds
7:34 PM 95.4 °F 99.7 °F 67.3 °F 40% 29.93 in 10.0 mi NW 13.8 mph - N/A   Clear
7:55 PM 93.4 °F 98.6 °F 69.1 °F 45% 29.94 in 10.0 mi North 8.1 mph - N/A   Clear
8:14 PM 89.8 °F 98.6 °F 73.9 °F 59% 29.94 in 10.0 mi NNE 8.1 mph - N/A   Clear
8:35 PM 88.0 °F 95.6 °F 73.0 °F 61% 29.96 in 10.0 mi NNE 6.9 mph - N/A   Clear
8:54 PM 85.6 °F 91.1 °F 71.2 °F 62% 29.97 in 10.0 mi NNE 5.8 mph - N/A   Clear
9:14 PM 84.6 °F 89.4 °F 70.9 °F 63% 29.97 in 10.0 mi NE 5.8 mph - N/A   Clear
9:35 PM 83.5 °F 87.7 °F 70.0 °F 64% 29.98 in 10.0 mi NE 6.9 mph - N/A   Clear
9:54 PM 82.6 °F 86.4 °F 69.6 °F 65% 29.98 in 10.0 mi NNE 6.9 mph - N/A   Clear
10:14 PM 81.5 °F 84.8 °F 69.1 °F 66% 29.98 in 10.0 mi NNE 6.9 mph - N/A   Clear
10:35 PM 80.4 °F 83.4 °F 69.1 °F 68% 29.99 in 10.0 mi NNE 5.8 mph - N/A   Clear
10:54 PM 79.9 °F - 69.6 °F 71% 30.00 in 10.0 mi NE 5.8 mph - N/A   Clear
11:15 PM 79.2 °F - 70.0 °F 73% 30.01 in 10.0 mi NNE 5.8 mph - N/A   Clear
11:35 PM 78.4 °F - 69.6 °F 74% 30.01 in 10.0 mi NNE 4.6 mph - N/A   Clear
11:54 PM 77.7 °F - 68.7 °F 74% 30.01 in 10.0 mi NE 4.6 mph - N/A   Clear